Simultaneous Nadir Overpasses (SNOs) Predictions

Prediction of SNOs between NOAA-19 and METOP-C Satellite Orbit:

Table of predicted SNOs for the next 14.0 days since TLE Epoch: 7/22/2022
Index Date (NOAA-19) Time (NOAA-19) Lat,Lon (NOAA-19) SZA (NOAA-19 ) Date (METOP-C) Time (METOP-C) Lat,Lon (METOP-C) SZA (METOP-C ) Distance(km) Time Diff (sec)
1 07/24/2022 10:43:27 -80.87,-127.62 117.56 07/24/2022 10:44:35 -80.86,-127.67 117.54 0.89 68
2 07/24/2022 11:34:26 80.86, 39.82 62.47 07/24/2022 11:35:15 80.87, 39.73 62.48 1.59 49
3 07/24/2022 12:25:26 -80.86,-152.81 117.52 07/24/2022 12:25:56 -80.87,-152.81 117.50 1.22 30
4 07/24/2022 13:16:26 80.87, 14.26 62.48 07/24/2022 13:16:37 80.86, 14.24 62.48 0.88 11
5 07/24/2022 14:07:26 -80.86,-178.37 117.51 07/24/2022 14:07:18 -80.87,-178.30 117.50 1.14 8
6 07/24/2022 14:58:25 80.86, -10.93 62.52 07/24/2022 14:57:58 80.87, -10.90 62.52 1.04 27
7 07/24/2022 15:49:26 -80.86, 156.08 117.50 07/24/2022 15:48:40 -80.86, 156.20 117.51 2.34 46
8 07/24/2022 16:40:25 80.86, -36.50 62.53 07/24/2022 16:39:20 80.86, -36.40 62.51 1.78 65
9 08/04/2022 17:00:56 -80.87, 138.07 114.84 08/04/2022 17:01:59 -80.87, 138.01 114.83 1.27 63
10 08/04/2022 17:51:52 80.87, -54.47 65.19 08/04/2022 17:52:39 80.88, -54.48 65.21 0.73 47
11 08/04/2022 18:42:55 -80.87, 112.88 114.80 08/04/2022 18:43:20 -80.88, 112.86 114.78 0.99 25
12 08/04/2022 19:33:52 80.87, -80.04 65.20 08/04/2022 19:34:01 80.87, -79.98 65.21 1.20 9
13 08/04/2022 20:24:55 -80.87, 87.31 114.78 08/04/2022 20:24:42 -80.87, 87.36 114.78 0.90 13
14 08/04/2022 21:15:51 80.87,-105.24 65.25 08/04/2022 21:15:22 80.88,-105.12 65.26 2.47 29
15 08/04/2022 22:06:55 -80.87, 61.75 114.77 08/04/2022 22:06:04 -80.86, 61.86 114.79 2.33 51



Historial Predications of SNOs between NOAA-19 and METOP-C
